This demonstration page uses our WeatherBlox Daily Observations layout. Learn more.

Left ArrowRight Arrow

Hourly Observations for January 22, 2019

Temp ( °F °C ) Dew Point ( °F °C ) Humidity (%) Winds ( mph kmh ) Pressure ( in mb ) Visibility ( mi km ) Precip ( " mm )
12:51 am 00:51 Clear 42 5.6 17 -8.3 36 36 NNW 8 13 29.81 1010 10 16 N/A
1:51 am 01:51 Clear 41 5 18 -7.8 39 39 NW 14 22 29.78 1009 10 16 N/A
2:51 am 02:51 Clear 41 5 19 -7.2 41 41 NW 12 19 29.80 1009 10 16 N/A
3:51 am 03:51 Clear 38 3.3 20 -6.7 48 48 NW 8 13 29.83 1010 10 16 N/A
4:51 am 04:51 Clear 39 3.9 21 -6.1 48 48 NNW 12 19 29.84 1011 10 16 N/A
5:51 am 05:51 Partly Cloudy 39 3.9 21 -6.1 48 48 NNW 9 15 29.88 1012 10 16 N/A
6:51 am 06:51 Cloudy 42 5.6 22 -5.6 45 45 NW 9 15 29.89 1012 10 16 N/A
7:51 am 07:51 Mostly Sunny 39 3.9 22 -5.6 50 50 NW 9 15 29.93 1014 10 16 N/A
8:51 am 08:51 Sunny 45 7.2 22 -5.6 40 40 NW 14 22 29.95 1014 10 16 N/A
9:51 am 09:51 Sunny 47 8.3 23 -5 39 39 WNW 18 30 29.96 1015 10 16 N/A
10:51 am 10:51 Sunny 50 10 22 -5.6 33 33 NW 17 28 29.98 1015 10 16 N/A
11:51 am 11:51 Sunny 52 11.1 21 -6.1 30 30 W 18 30 29.98 1015 10 16 N/A
12:51 pm 12:51 Sunny 55 12.8 20 -6.7 25 25 WNW 16 26 29.97 1015 10 16 N/A
1:51 pm 13:51 Sunny 55 12.8 18 -7.8 23 23 WNW 22 35 29.96 1015 10 16 N/A
2:51 pm 14:51 Sunny 56 13.3 16 -8.9 21 21 W 17 28 29.96 1015 10 16 N/A
3:51 pm 15:51 Sunny 56 13.3 15 -9.4 20 20 WNW 23 37 29.99 1016 10 16 N/A
4:51 pm 16:51 Sunny 54 12.2 14 -10 20 20 WNW 25 41 30.02 1017 10 16 N/A
5:51 pm 17:51 Clear 50 10 15 -9.4 25 25 WNW 17 28 30.07 1018 10 16 N/A
6:51 pm 18:51 Clear 45 7.2 16 -8.9 31 31 WNW 9 15 30.11 1020 10 16 N/A
7:51 pm 19:51 Clear 42 5.6 17 -8.3 36 36 WNW 9 15 30.15 1021 10 16 N/A
8:51 pm 20:51 Clear 39 3.9 16 -8.9 39 39 WNW 8 13 30.17 1022 10 16 N/A
9:51 pm 21:51 Clear 40 4.4 16 -8.9 38 38 NW 7 11 30.19 1022 10 16 N/A
10:51 pm 22:51 Clear 37 2.8 16 -8.9 42 42 N N/A 30.22 1023 10 16 N/A
11:51 pm 23:51 Clear 31 -0.6 17 -8.3 56 56 N N/A 30.24 1024 10 16 N/A

Powered by AerisWeather